This demonstration page uses our WeatherBlox Daily Observations layout. Learn more.

Left ArrowRight Arrow

53.62937, 11.41316

Hourly Observations for November 22, 2020

Temp ( °F °C ) Dew Point ( °F °C ) Humidity (%) Winds ( mph kmh ) Pressure ( in mb ) Visibility ( mi km ) Precip ( " mm )
8:20 am 08:20 Partly Cloudy 50 10 46 8 88 88 SW 16 26 30.06 1018 30 48 N/A
8:50 am 08:50 Partly Cloudy with Light Showers 50 10 46 8 88 88 SW 17 28 30.06 1018 30 48 N/A
9:20 am 09:20 Partly Cloudy with Showers Nearby 48 9 45 7 87 87 SW 13 20 30.06 1018 30 48 N/A
9:50 am 09:50 Mostly Cloudy with Showers Nearby 48 9 46 8 94 94 SW 14 22 30.06 1018 30 48 N/A
10:20 am 10:20 Partly Cloudy 48 9 43 6 82 82 SW 15 24 30.09 1019 30 48 N/A
10:50 am 10:50 Mostly Sunny 48 9 41 5 76 76 SW 13 20 30.09 1019 30 48 N/A
11:20 am 11:20 Mostly Cloudy 48 9 43 6 82 82 SW 13 20 30.09 1019 30 48 N/A
11:50 am 11:50 Partly Cloudy 50 10 43 6 76 76 SW 16 26 30.09 1019 30 48 N/A
12:20 pm 12:20 Mostly Cloudy 50 10 43 6 76 76 SW 14 22 30.09 1019 30 48 N/A
12:50 pm 12:50 Partly Cloudy 50 10 41 5 71 71 SW 15 24 30.09 1019 30 48 N/A
1:20 pm 13:20 Partly Cloudy 50 10 43 6 76 76 SW 14 22 30.09 1019 30 48 N/A
1:50 pm 13:50 Mostly Sunny 50 10 43 6 76 76 SW 12 19 30.09 1019 7 11 N/A
2:20 pm 14:20 Partly Cloudy 50 10 43 6 76 76 SW 12 19 30.09 1019 30 48 N/A
2:50 pm 14:50 Mostly Cloudy 50 10 43 6 76 76 WSW 10 17 30.12 1020 30 48 N/A
3:20 pm 15:20 Partly Cloudy 50 10 41 5 71 71 WSW 12 19 30.12 1020 30 48 N/A
3:50 pm 15:50 Partly Cloudy 48 9 39 4 71 71 WSW 8 13 30.12 1020 30 48 N/A
4:20 pm 16:20 Mostly Clear 48 9 41 5 76 76 SW 6 9 30.12 1020 7 11 N/A
4:50 pm 16:50 Mostly Clear 46 8 39 4 76 76 SW 7 11 30.12 1020 30 48 N/A
5:20 pm 17:20 Mostly Clear 46 8 41 5 82 82 SW 6 9 30.15 1021 7 11 N/A
5:50 pm 17:50 Mostly Clear 45 7 39 4 81 81 SW 6 9 30.15 1021 30 48 N/A
6:20 pm 18:20 Mostly Clear 45 7 41 5 87 87 SSW 7 11 30.15 1021 30 48 N/A
6:50 pm 18:50 Mostly Clear 45 7 41 5 87 87 SSW 9 15 30.15 1021 30 48 N/A
7:20 pm 19:20 Mostly Clear 45 7 41 5 87 87 SSW 8 13 30.15 1021 30 48 N/A
7:50 pm 19:50 Mostly Clear 45 7 39 4 81 81 SSW 10 17 30.15 1021 7 11 N/A
8:20 pm 20:20 Mostly Clear 45 7 39 4 81 81 SW 9 15 30.15 1021 7 11 N/A
8:50 pm 20:50 Mostly Clear 43 6 39 4 87 87 SSW 9 15 30.15 1021 7 11 N/A
9:20 pm 21:20 Mostly Clear 43 6 41 5 93 93 SSW 9 15 30.15 1021 30 48 N/A
9:50 pm 21:50 Mostly Clear 43 6 39 4 87 87 SSW 9 15 30.15 1021 7 11 N/A

Powered by AerisWeather